| time (UTC) | temp F | wind direction | speed MPH | gust MPH | rain 1hr in | rain 24hr in | rain mn in | humidity % | barometer mb |
| 20260902140011 | 78 | 246 | 3.0 | 0.0 | 0.00 | 0.00 | 0.00 | 80 | 1011.9 |
| 20260902133004 | 76 | 241 | 3.0 | 0.0 | 0.00 | 0.00 | 0.00 | 85 | 1012.0 |
| 20260902131628 | 74 | 211 | 3.0 | 0.0 | 0.00 | 0.00 | 0.00 | 86 | 1011.9 |
| 20260902130003 | 73 | 207 | 2.0 | 0.0 | 0.00 | 0.00 | 0.00 | 86 | 1011.7 |
| 20260902124504 | 72 | 203 | 3.0 | 0.0 | 0.00 | 0.00 | 0.00 | 86 | 1011.7 |
| 20260902123154 | 72 | 228 | 2.0 | 0.0 | 0.00 | 0.00 | 0.00 | 86 | 1011.4 |
| 20260902121504 | 72 | 245 | 1.0 | 0.0 | 0.00 | 0.00 | 0.00 | 85 | 1011.4 |
| 20260902120002 | 72 | 210 | 1.0 | 0.0 | 0.00 | 0.00 | 0.00 | 84 | 1011.0 |
| 20260902114603 | 73 | 215 | 1.0 | 0.0 | 0.00 | 0.00 | 0.00 | 83 | 1011.0 |
| 20260902113006 | 73 | 225 | 3.0 | 0.0 | 0.00 | 0.00 | 0.00 | 82 | 1010.9 |
| 20260902111504 | 73 | 229 | 3.0 | 0.0 | 0.00 | 0.00 | 0.00 | 80 | 1010.9 |
| 20260902110004 | 73 | 205 | 3.0 | 0.0 | 0.00 | 0.00 | 0.00 | 80 | 1010.8 |
| 20260902104605 | 73 | 209 | 2.0 | 0.0 | 0.00 | 0.00 | 0.00 | 80 | 1010.8 |
| 20260902103102 | 73 | 198 | 2.0 | 0.0 | 0.00 | 0.00 | 0.00 | 81 | 1010.8 |
| 20260902101509 | 74 | 227 | 1.0 | 0.0 | 0.00 | 0.00 | 0.00 | 80 | 1010.8 |
| 20260902100104 | 74 | 209 | 2.0 | 0.0 | 0.00 | 0.00 | 0.00 | 80 | 1010.8 |
| 20260902094505 | 74 | 207 | 2.0 | 0.0 | 0.00 | 0.00 | 0.00 | 79 | 1010.7 |
| 20260902093136 | 74 | 215 | 2.0 | 0.0 | 0.00 | 0.00 | 0.00 | 79 | 1010.7 |
| 20260902091614 | 74 | 257 | 1.0 | 0.0 | 0.00 | 0.00 | 0.00 | 77 | 1010.8 |
| 20260902090005 | 75 | 245 | 0.0 | 0.0 | 0.00 | 0.00 | 0.00 | 76 | 1011.0 |
| 20260902084604 | 75 | 239 | 2.0 | 0.0 | 0.00 | 0.00 | 0.00 | 75 | 1011.0 |
| 20260902083006 | 75 | 157 | 3.0 | 0.0 | 0.00 | 0.00 | 0.00 | 74 | 1011.0 |
| 20260902081506 | 76 | 168 | 3.0 | 0.0 | 0.00 | 0.00 | 0.00 | 73 | 1011.1 |
| 20260902080007 | 76 | 190 | 3.0 | 0.0 | 0.00 | 0.00 | 0.00 | 71 | 1010.9 |
| 20260902074502 | 77 | 150 | 3.0 | 0.0 | 0.00 | 0.00 | 0.00 | 69 | 1011.0 |
| 20260902073006 | 77 | 147 | 3.0 | 0.0 | 0.00 | 0.00 | 0.00 | 69 | 1010.9 |
| 20260902071506 | 77 | 191 | 2.0 | 0.0 | 0.00 | 0.00 | 0.00 | 68 | 1010.9 |
| 20260902070104 | 78 | 167 | 2.0 | 0.0 | 0.00 | 0.00 | 0.00 | 68 | 1010.9 |
| 20260902064507 | 78 | 165 | 3.0 | 0.0 | 0.00 | 0.00 | 0.00 | 68 | 1010.8 |
| 20260902063108 | 78 | 169 | 3.0 | 0.0 | 0.00 | 0.00 | 0.00 | 68 | 1010.9 |
| 20260902060007 | 79 | 156 | 3.0 | 0.0 | 0.00 | 0.00 | 0.00 | 67 | 1010.8 |
| 20260902054507 | 79 | 150 | 3.0 | 0.0 | 0.00 | 0.00 | 0.00 | 67 | 1010.9 |
| 20260902053102 | 79 | 139 | 2.0 | 0.0 | 0.00 | 0.00 | 0.00 | 67 | 1010.8 |
| 20260902050008 | 80 | 150 | 3.0 | 0.0 | 0.00 | 0.00 | 0.00 | 65 | 1010.6 |
| 20260902043009 | 82 | 132 | 3.0 | 0.0 | 0.00 | 0.00 | 0.00 | 63 | 1010.5 |
| 20260902040008 | 82 | 89 | 3.0 | 0.0 | 0.00 | 0.00 | 0.00 | 61 | 1010.6 |
| 20260902034505 | 83 | 105 | 2.0 | 0.0 | 0.00 | 0.00 | 0.00 | 59 | 1010.5 |
| 20260902033006 | 83 | 109 | 2.0 | 0.0 | 0.00 | 0.00 | 0.00 | 58 | 1010.4 |
| 20260902031502 | 83 | 90 | 1.0 | 0.0 | 0.00 | 0.00 | 0.00 | 57 | 1010.3 |
| 20260902030105 | 83 | 128 | 1.0 | 0.0 | 0.00 | 0.00 | 0.00 | 55 | 1010.1 |
| 20260902024602 | 83 | 115 | 1.0 | 0.0 | 0.00 | 0.00 | 0.00 | 54 | 1010.2 |
| 20260902023006 | 83 | 116 | 0.0 | 0.0 | 0.00 | 0.00 | 0.00 | 53 | 1009.9 |
| 20260902021634 | 83 | 146 | 0.0 | 0.0 | 0.00 | 0.00 | 0.00 | 53 | 1009.7 |
| 20260902014616 | 83 | 121 | 0.0 | 0.0 | 0.00 | 0.00 | 0.00 | 53 | 1009.4 |
| 20260902013104 | 84 | 121 | 0.0 | 0.0 | 0.00 | 0.00 | 0.00 | 53 | 1009.3 |
| 20260902010003 | 86 | 121 | 0.0 | 0.0 | 0.00 | 0.00 | 0.00 | 49 | 1009.3 |
| 20260902004505 | 88 | 120 | 0.0 | 0.0 | 0.00 | 0.00 | 0.00 | 48 | 1009.2 |
| 20260902003007 | 90 | 120 | 1.0 | 0.0 | 0.00 | 0.00 | 0.00 | 45 | 1009.2 |
| 20260902001604 | 91 | 113 | 1.0 | 0.0 | 0.00 | 0.00 | 0.00 | 44 | 1009.1 |
| 20260902000105 | 91 | 128 | 1.0 | 0.0 | 0.00 | 0.00 | 0.00 | 43 | 1009.0 |
| 20260901234609 | 92 | 126 | 3.0 | 0.0 | 0.00 | 0.00 | 0.00 | 43 | 1009.1 |
| 20260901233007 | 93 | 151 | 2.0 | 0.0 | 0.00 | 0.00 | 0.00 | 41 | 1008.9 |
| 20260901231506 | 94 | 119 | 2.0 | 0.0 | 0.00 | 0.00 | 0.00 | 40 | 1008.8 |
| 20260901230003 | 95 | 115 | 2.0 | 0.0 | 0.00 | 0.00 | 0.00 | 38 | 1008.8 |
| 20260901224506 | 95 | 168 | 2.0 | 0.0 | 0.00 | 0.00 | 0.00 | 38 | 1008.7 |
| 20260901223111 | 95 | 172 | 3.0 | 0.0 | 0.00 | 0.00 | 0.00 | 37 | 1008.9 |
| 20260901221509 | 95 | 113 | 2.0 | 0.0 | 0.00 | 0.00 | 0.00 | 37 | 1008.7 |
| 20260901220007 | 94 | 176 | 4.0 | 0.0 | 0.00 | 0.00 | 0.00 | 37 | 1008.9 |
| 20260901214518 | 95 | 144 | 2.0 | 0.0 | 0.00 | 0.00 | 0.00 | 37 | 1008.7 |
| 20260901211502 | 94 | 94 | 2.0 | 0.0 | 0.00 | 0.00 | 0.00 | 38 | 1009.3 |
| 20260901210002 | 92 | 163 | 2.0 | 0.0 | 0.00 | 0.00 | 0.00 | 41 | 1009.6 |
| 20260901204504 | 94 | 268 | 2.0 | 0.0 | 0.00 | 0.00 | 0.00 | 39 | 1009.8 |
| 20260901203015 | 92 | 335 | 1.0 | 0.0 | 0.00 | 0.00 | 0.00 | 41 | 1010.0 |
| 20260901201503 | 94 | 119 | 3.0 | 0.0 | 0.00 | 0.00 | 0.00 | 39 | 1010.1 |
| 20260901200006 | 95 | 10 | 3.0 | 0.0 | 0.00 | 0.00 | 0.00 | 38 | 1010.2 |
| 20260901193106 | 94 | 80 | 2.0 | 0.0 | 0.00 | 0.00 | 0.00 | 39 | 1010.5 |
| 20260901191607 | 93 | 53 | 3.0 | 0.0 | 0.00 | 0.00 | 0.00 | 42 | 1010.8 |
| 20260901190008 | 93 | 202 | 3.0 | 0.0 | 0.00 | 0.00 | 0.00 | 40 | 1011.0 |
| 20260901183006 | 92 | 134 | 4.0 | 0.0 | 0.00 | 0.00 | 0.00 | 43 | 1011.4 |
| 20260901181604 | 91 | 92 | 3.0 | 0.0 | 0.00 | 0.00 | 0.00 | 44 | 1011.7 |
| 20260901174506 | 92 | 154 | 3.0 | 0.0 | 0.00 | 0.00 | 0.00 | 44 | 1012.1 |
| 20260901173005 | 90 | 158 | 3.0 | 0.0 | 0.00 | 0.00 | 0.00 | 46 | 1012.3 |
| 20260901171511 | 89 | 180 | 2.0 | 0.0 | 0.00 | 0.00 | 0.00 | 47 | 1012.5 |
| 20260901170006 | 89 | 168 | 3.0 | 0.0 | 0.00 | 0.00 | 0.00 | 46 | 1012.6 |
| 20260901164517 | 89 | 82 | 4.0 | 0.0 | 0.00 | 0.00 | 0.00 | 46 | 1012.4 |
| 20260901163004 | 89 | 121 | 3.0 | 0.0 | 0.00 | 0.00 | 0.00 | 45 | 1012.6 |
| 20260901161510 | 88 | 195 | 2.0 | 0.0 | 0.00 | 0.00 | 0.00 | 49 | 1012.8 |
| 20260901160002 | 87 | 217 | 3.0 | 0.0 | 0.00 | 0.00 | 0.00 | 50 | 1012.8 |
| 20260901154510 | 86 | 119 | 3.0 | 0.0 | 0.00 | 0.00 | 0.00 | 52 | 1012.7 |
| 20260901153006 | 85 | 159 | 2.0 | 0.0 | 0.00 | 0.00 | 0.00 | 55 | 1012.7 |
| 20260901150123 | 82 | 173 | 3.0 | 0.0 | 0.00 | 0.00 | 0.00 | 59 | 1012.8 |
| 20260901144603 | 82 | 130 | 2.0 | 0.0 | 0.00 | 0.00 | 0.00 | 63 | 1012.7 |
| 20260901143007 | 80 | 197 | 3.0 | 0.0 | 0.00 | 0.00 | 0.00 | 70 | 1012.6 |
| 20260901141505 | 79 | 198 | 4.0 | 0.0 | 0.00 | 0.00 | 0.00 | 72 | 1012.7 |